Voltar ao catálogo

STARLINK-35803

AtivoComunicaçõesVLEO
NORAD 66568·PAYLOAD·🇺🇸 United States

Lançado Nov 21, 2025 de Cape Canaveral Space Force Station

Loading…

Próximas Passagens (próximas 24 horas)

TLE

AtualizadoSource: CelesTrak SupGP

Época: Sep 15, 2026, 03:43 UTC

1 66568C 25268M   26258.15534722  .00044966  00000+0  16288-2 0  2589
2 66568  43.0031 356.7039 0001610 269.5837 325.9434 15.27554233    13

Acompanhe STARLINK-35803 em tempo real com AllMySat

Download on the App Store